Flag for Canada Weather past 2 weeks in Yellowknife, Northwest Territories, Canada

Now
1 °F

Snow flurries. Partly sunny.


Feels Like: -11 °F
Forecast: -11 / 3 °F
Wind: 7 mph from West

Location: Yellowknife

Current Time: Feb 1, 2015 at 4:32:33 PM

Latest Report: Feb 1, 2015 at 3:00 PM


Visibility: 15 mi

Pressure: 30.22 "Hg

Humidity: 85%

Dew point: -2 °F

Location of YellowknifeLocation

Historic Weather in Yellowknife — Graph

°F

Yellowknife temperature yesterday

Maximum temperature yesterday: -13 °F (at 10:00 PM)
Minimum temperature yesterday: -36 °F (at 3:00 AM)
Average temperature yesterday: -26 °F

Past Weeks' High & Low Weather Summary

 TemperatureHumidityPressure
High12 °F (Jan 21, 4:00 PM)92% (Jan 20, 1:00 AM)30.87 "Hg (Jan 20, 1:00 AM)
Low-38 °F (Jan 28, 6:00 AM)66% (Jan 28, 7:00 AM)29.30 "Hg (Jan 21, 4:00 PM)
Average-11 °F77%30.09 "Hg
* Reported Jan 17 3:00 PM — Feb 1 3:00 PM, Yellowknife, Weather by CustomWeather, © 2014

Note: Actual official high and low records may vary slightly from our data, if they occured in-between our weather recording intervals... More about our weather records

Advertising

Yellowknife weather history for previous 24 hours

 ConditionsComfort  
Time TempWeatherWind HumidityBarometerVisibility
3:00 PM
Feb 1
1 °FSnow flurries. Partly sunny.7 mph85%30.22 "Hg15 mi
2:00 PM0 °FLight snow. Overcast.6 mph84%30.24 "Hg5 mi
1:00 PM0 °FLight snow. Overcast.7 mph84%30.25 "Hg2 mi
12:00 PM-2 °FLight snow. Overcast.6 mph84%30.27 "Hg2 mi
11:00 AM-4 °FScattered clouds.8 mph77%30.27 "Hg15 mi
10:00 AM-6 °FScattered clouds.6 mph77%30.28 "Hg15 mi
9:00 AM-4 °FLight snow. Overcast.6 mph77%30.29 "Hg10 mi
8:00 AM-6 °FLight snow. Overcast.7 mph84%30.31 "Hg15 mi
7:00 AM-6 °FLight snow. Overcast.8 mph77%30.33 "Hg10 mi
6:00 AM-8 °FLight snow. Overcast.8 mph84%30.34 "Hg15 mi
5:00 AM-6 °FLight snow. Overcast.10 mph77%30.34 "Hg5 mi
4:00 AM-8 °FLight snow. Passing clouds.9 mph77%30.34 "Hg15 mi
3:00 AM-9 °FLight snow. Passing clouds.8 mph84%30.35 "Hg15 mi
2:00 AM-9 °FLight snow. Mostly cloudy.5 mph77%30.36 "Hg3 mi
1:00 AM-11 °FLight snow. Mostly cloudy.2 mph84%30.36 "Hg15 mi
12:48 AM-11 °FLight snow. Overcast.3 mph84%30.37 "Hg15 mi
12:00 AM-11 °FLight snow. Ice fog.No wind84%30.37 "Hg2 mi
11:00 PM
Jan 31
-13 °FLight snow. Overcast.2 mph83%30.37 "Hg3 mi
10:00 PM-13 °FLight snow. Overcast.3 mph76%30.38 "Hg4 mi
9:00 PM-15 °FLight snow. Overcast.7 mph76%30.40 "Hg4 mi
8:00 PM-17 °FLight snow. Overcast.7 mph76%30.44 "Hg10 mi
7:00 PM-18 °FSnow flurries. Overcast.9 mph69%30.46 "Hg12 mi
6:50 PM-18 °FSnow flurries. Overcast.8 mph69%30.46 "Hg12 mi
6:00 PM-22 °FMostly cloudy.7 mph75%30.48 "Hg12 mi
5:00 PM-22 °FMostly cloudy.10 mph68%30.50 "Hg15 mi
4:00 PM-22 °FBroken clouds.12 mph68%30.54 "Hg15 mi
Weather by CustomWeather, © 2014

See weather overviewHow to use our weather pages